TimeCDT,TemperatureF,Dew PointF,Humidity,Sea Level PressureIn,VisibilityMPH,Wind Direction,Wind SpeedMPH,Gust SpeedMPH,PrecipitationIn,Events,Conditions,WindDirDegrees,DateUTC
12:52 AM,30.0,26.1,85,30.15,10.0,NNW,4.6,-,N/A,,Clear,330,2012-11-03 05:52:00
1:52 AM,30.0,27.0,88,30.16,10.0,NW,4.6,-,N/A,,Clear,320,2012-11-03 06:52:00
2:52 AM,28.0,26.1,92,30.16,10.0,NW,3.5,-,N/A,,Clear,320,2012-11-03 07:52:00
3:52 AM,27.0,24.1,89,30.17,10.0,Calm,Calm,-,N/A,,Clear,0,2012-11-03 08:52:00
4:52 AM,26.1,25.0,96,30.19,10.0,NW,4.6,-,N/A,,Clear,310,2012-11-03 09:52:00
5:52 AM,24.1,21.9,91,30.20,8.0,Calm,Calm,-,N/A,,Clear,0,2012-11-03 10:52:00
6:52 AM,23.0,21.9,96,30.21,7.0,WNW,3.5,-,N/A,,Clear,290,2012-11-03 11:52:00
7:52 AM,24.1,23.0,96,30.23,10.0,NW,5.8,-,N/A,,Partly Cloudy,320,2012-11-03 12:52:00
8:52 AM,30.9,28.9,92,30.24,10.0,Calm,Calm,-,N/A,,Overcast,0,2012-11-03 13:52:00
9:52 AM,37.0,32.0,82,30.25,10.0,Calm,Calm,-,N/A,,Mostly Cloudy,0,2012-11-03 14:52:00
10:52 AM,39.0,32.0,76,30.25,10.0,Calm,Calm,-,N/A,,Overcast,0,2012-11-03 15:52:00
11:52 AM,41.0,30.9,67,30.27,10.0,NW,4.6,-,N/A,,Overcast,310,2012-11-03 16:52:00
12:52 PM,45.0,32.0,60,30.25,10.0,NNW,4.6,-,N/A,,Overcast,340,2012-11-03 17:52:00
1:52 PM,48.9,30.9,50,30.23,10.0,NNW,3.5,-,N/A,,Scattered Clouds,340,2012-11-03 18:52:00
2:52 PM,48.9,32.0,52,30.22,10.0,NNW,4.6,-,N/A,,Clear,330,2012-11-03 19:52:00
3:52 PM,50.0,33.1,52,30.22,10.0,Variable,4.6,-,N/A,,Clear,0,2012-11-03 20:52:00
4:52 PM,51.1,33.1,50,30.20,10.0,Calm,Calm,-,N/A,,Clear,0,2012-11-03 21:52:00
5:52 PM,48.9,33.1,54,30.20,10.0,NNW,3.5,-,N/A,,Scattered Clouds,340,2012-11-03 22:52:00
6:52 PM,43.0,30.9,62,30.22,8.0,Calm,Calm,-,N/A,,Clear,0,2012-11-03 23:52:00
7:52 PM,39.9,30.9,70,30.24,10.0,Calm,Calm,-,N/A,,Clear,0,2012-11-04 00:52:00
8:52 PM,36.0,28.9,76,30.23,10.0,Calm,Calm,-,N/A,,Mostly Cloudy,0,2012-11-04 01:52:00
9:52 PM,39.0,32.0,76,30.22,10.0,ESE,3.5,-,N/A,,Overcast,110,2012-11-04 02:52:00
10:52 PM,37.9,32.0,79,30.22,10.0,ESE,4.6,-,N/A,,Overcast,110,2012-11-04 03:52:00
11:52 PM,37.9,30.9,76,30.21,10.0,ESE,3.5,-,N/A,,Overcast,110,2012-11-04 04:52:00